| time (UTC) | temp F | wind direction | speed knots | gust knots | rain 1hr in | rain 24hr in | rain mn in | humidity % | barometer mb |
| 20260505083832 | 52 | 164 | 0.9 | 7.8 | 0.00 | 0.00 | 0.00 | 61 | 1010.4 |
| 20260505083342 | 52 | 96 | 2.6 | 6.1 | 0.00 | 0.00 | 0.00 | 63 | 1010.4 |
| 20260505082851 | 52 | 99 | 2.6 | 6.1 | 0.00 | 0.00 | 0.00 | 62 | 1010.7 |
| 20260505082347 | 51 | 140 | 2.6 | 5.2 | 0.00 | 0.00 | 0.00 | 67 | 1010.7 |
| 20260505081831 | 51 | 126 | 1.7 | 3.5 | 0.00 | 0.00 | 0.00 | 69 | 1010.7 |
| 20260505081340 | 51 | 112 | 0.0 | 5.2 | 0.00 | 0.00 | 0.00 | 70 | 1011.2 |
| 20260505080841 | 51 | 118 | 0.9 | 5.2 | 0.00 | 0.00 | 0.00 | 71 | 1011.2 |
| 20260505080354 | 51 | 113 | 2.6 | 10.4 | 0.00 | 0.00 | 0.00 | 71 | 1011.2 |
| 20260505075832 | 51 | 68 | 0.9 | 10.4 | 0.00 | 0.00 | 0.00 | 71 | 1011.2 |
| 20260505075345 | 50 | 138 | 1.7 | 6.1 | 0.00 | 0.00 | 0.00 | 75 | 1011.2 |
| 20260505074855 | 50 | 150 | 2.6 | 6.1 | 0.00 | 0.00 | 0.00 | 76 | 1011.2 |
| 20260505074354 | 50 | 167 | 1.7 | 6.1 | 0.00 | 0.00 | 0.00 | 77 | 1011.4 |
| 20260505073835 | 50 | 127 | 3.5 | 7.0 | 0.00 | 0.00 | 0.00 | 79 | 1011.4 |
| 20260505073405 | 50 | 139 | 3.5 | 7.0 | 0.00 | 0.00 | 0.00 | 78 | 1011.4 |
| 20260505072854 | 50 | 148 | 2.6 | 6.1 | 0.00 | 0.00 | 0.00 | 82 | 1011.5 |
| 20260505072404 | 50 | 144 | 4.3 | 7.0 | 0.00 | 0.00 | 0.00 | 81 | 1011.5 |
| 20260505071850 | 50 | 122 | 1.7 | 7.8 | 0.00 | 0.00 | 0.00 | 81 | 1011.5 |
| 20260505071347 | 50 | 123 | 3.5 | 7.8 | 0.00 | 0.00 | 0.00 | 81 | 1011.2 |
| 20260505070848 | 50 | 104 | 3.5 | 8.7 | 0.00 | 0.00 | 0.00 | 80 | 1011.2 |
| 20260505070330 | 50 | 144 | 4.3 | 8.7 | 0.00 | 0.00 | 0.00 | 79 | 1011.2 |
| 20260505065907 | 50 | 124 | 2.6 | 9.6 | 0.00 | 0.00 | 0.00 | 78 | 1011.4 |
| 20260505065357 | 50 | 146 | 2.6 | 9.6 | 0.00 | 0.00 | 0.00 | 77 | 1011.4 |
| 20260505064839 | 50 | 171 | 4.3 | 11.3 | 0.00 | 0.00 | 0.00 | 75 | 1011.4 |
| 20260505064350 | 51 | 90 | 4.3 | 12.2 | 0.00 | 0.00 | 0.00 | 74 | 1011.4 |
| 20260505063857 | 51 | 145 | 6.1 | 12.2 | 0.00 | 0.00 | 0.00 | 74 | 1011.4 |
| 20260505063338 | 51 | 142 | 7.0 | 12.2 | 0.00 | 0.00 | 0.00 | 72 | 1011.4 |
| 20260505062909 | 51 | 179 | 7.8 | 13.0 | 0.00 | 0.00 | 0.00 | 72 | 1011.5 |
| 20260505062330 | 51 | 142 | 7.0 | 13.0 | 0.00 | 0.00 | 0.00 | 73 | 1011.5 |
| 20260505061842 | 51 | 156 | 6.1 | 11.3 | 0.00 | 0.00 | 0.00 | 73 | 1011.5 |
| 20260505061415 | 51 | 140 | 6.1 | 11.3 | 0.00 | 0.00 | 0.00 | 74 | 1011.6 |
| 20260505060852 | 51 | 179 | 3.5 | 13.0 | 0.00 | 0.00 | 0.00 | 74 | 1011.6 |
| 20260505060334 | 51 | 131 | 7.8 | 13.9 | 0.00 | 0.00 | 0.00 | 75 | 1011.6 |
| 20260505055838 | 51 | 125 | 7.0 | 13.9 | 0.00 | 0.00 | 0.00 | 76 | 1011.7 |
| 20260505055341 | 51 | 139 | 8.7 | 13.0 | 0.00 | 0.00 | 0.00 | 77 | 1011.7 |
| 20260505054853 | 51 | 128 | 5.2 | 13.0 | 0.00 | 0.00 | 0.00 | 76 | 1011.7 |
| 20260505054336 | 51 | 177 | 7.0 | 11.3 | 0.00 | 0.00 | 0.00 | 76 | 1011.6 |
| 20260505053847 | 51 | 163 | 7.0 | 12.2 | 0.00 | 0.00 | 0.00 | 75 | 1011.6 |
| 20260505053327 | 52 | 164 | 5.2 | 13.9 | 0.00 | 0.00 | 0.00 | 75 | 1011.6 |
| 20260505052854 | 52 | 142 | 7.8 | 16.5 | 0.00 | 0.00 | 0.00 | 73 | 1011.6 |
| 20260505052354 | 52 | 113 | 9.6 | 16.5 | 0.00 | 0.00 | 0.00 | 73 | 1011.6 |
| 20260505051833 | 52 | 177 | 6.1 | 15.6 | 0.00 | 0.00 | 0.00 | 75 | 1011.6 |
| 20260505051342 | 52 | 15 | 8.7 | 15.6 | 0.00 | 0.00 | 0.00 | 75 | 1012.0 |
| 20260505050832 | 52 | 121 | 5.2 | 15.6 | 0.00 | 0.00 | 0.00 | 75 | 1012.0 |
| 20260505050349 | 52 | 138 | 10.4 | 15.6 | 0.00 | 0.00 | 0.00 | 75 | 1012.0 |
| 20260505041353 | 53 | 48 | 7.0 | 13.0 | 0.00 | 0.00 | 0.00 | 75 | 1011.0 |
| 20260505040835 | 54 | 289 | 6.1 | 13.0 | 0.00 | 0.00 | 0.00 | 74 | 1011.0 |
| 20260505040351 | 54 | 178 | 7.8 | 13.0 | 0.00 | 0.00 | 0.00 | 69 | 1011.0 |
| 20260505035831 | 55 | 121 | 7.0 | 13.0 | 0.00 | 0.00 | 0.00 | 68 | 1010.8 |
| 20260505035355 | 55 | 142 | 6.1 | 12.2 | 0.00 | 0.00 | 0.00 | 65 | 1010.8 |
| 20260505034856 | 56 | 131 | 5.2 | 12.2 | 0.00 | 0.00 | 0.00 | 62 | 1010.8 |
| 20260505034358 | 56 | 163 | 6.1 | 14.8 | 0.00 | 0.00 | 0.00 | 62 | 1010.1 |
| 20260505033837 | 56 | 192 | 8.7 | 14.8 | 0.00 | 0.00 | 0.00 | 61 | 1010.1 |
| 20260505033345 | 56 | 123 | 7.0 | 13.9 | 0.00 | 0.00 | 0.00 | 60 | 1010.1 |
| 20260505032918 | 56 | 183 | 9.6 | 13.9 | 0.00 | 0.00 | 0.00 | 59 | 1009.5 |
| 20260505032352 | 57 | 178 | 5.2 | 12.2 | 0.00 | 0.00 | 0.00 | 58 | 1009.5 |
| 20260505031830 | 58 | 227 | 6.1 | 12.2 | 0.00 | 0.00 | 0.00 | 54 | 1009.5 |
| 20260505031341 | 58 | 215 | 7.8 | 12.2 | 0.00 | 0.00 | 0.00 | 47 | 1009.5 |
| 20260505030842 | 58 | 177 | 7.0 | 10.4 | 0.00 | 0.00 | 0.00 | 44 | 1009.5 |
| 20260505030352 | 58 | 154 | 5.2 | 9.6 | 0.00 | 0.00 | 0.00 | 44 | 1009.5 |
| 20260505025833 | 58 | 151 | 4.3 | 7.8 | 0.00 | 0.00 | 0.00 | 45 | 1009.5 |
| 20260505025348 | 58 | 152 | 2.6 | 6.1 | 0.00 | 0.00 | 0.00 | 48 | 1009.5 |
| 20260505024847 | 58 | 156 | 3.5 | 6.1 | 0.00 | 0.00 | 0.00 | 48 | 1009.5 |
| 20260505024331 | 58 | 172 | 3.5 | 4.3 | 0.00 | 0.00 | 0.00 | 48 | 1008.9 |
| 20260505023843 | 59 | 173 | 1.7 | 3.5 | 0.00 | 0.00 | 0.00 | 47 | 1008.9 |
| 20260505023355 | 59 | 150 | 1.7 | 6.1 | 0.00 | 0.00 | 0.00 | 47 | 1008.9 |
| 20260505022838 | 59 | 179 | 3.5 | 7.8 | 0.00 | 0.00 | 0.00 | 46 | 1008.7 |
| 20260505022349 | 59 | 141 | 3.5 | 7.8 | 0.00 | 0.00 | 0.00 | 45 | 1008.7 |
| 20260505021833 | 60 | 146 | 4.3 | 8.7 | 0.00 | 0.00 | 0.00 | 44 | 1008.7 |
| 20260505021344 | 60 | 198 | 3.5 | 8.7 | 0.00 | 0.00 | 0.00 | 45 | 1009.0 |
| 20260505020843 | 60 | 188 | 1.7 | 7.0 | 0.00 | 0.00 | 0.00 | 44 | 1009.0 |
| 20260505020329 | 60 | 183 | 2.6 | 6.1 | 0.00 | 0.00 | 0.00 | 45 | 1009.0 |
| 20260505015840 | 60 | 188 | 0.9 | 6.1 | 0.00 | 0.00 | 0.00 | 44 | 1008.6 |
| 20260505015406 | 61 | 198 | 2.6 | 5.2 | 0.00 | 0.00 | 0.00 | 44 | 1008.6 |
| 20260505014854 | 61 | 196 | 2.6 | 4.3 | 0.00 | 0.00 | 0.00 | 43 | 1008.6 |
| 20260505014336 | 61 | 177 | 1.7 | 4.3 | 0.00 | 0.00 | 0.00 | 43 | 1009.0 |
| 20260505013845 | 61 | 163 | 0.9 | 5.2 | 0.00 | 0.00 | 0.00 | 44 | 1009.0 |
| 20260505013412 | 60 | 186 | 2.6 | 6.1 | 0.00 | 0.00 | 0.00 | 44 | 1009.0 |
| 20260505012855 | 61 | 151 | 2.6 | 8.7 | 0.00 | 0.00 | 0.00 | 45 | 1009.2 |
| 20260505012339 | 60 | 124 | 4.3 | 8.7 | 0.00 | 0.00 | 0.00 | 44 | 1009.2 |
| 20260505011844 | 60 | 171 | 2.6 | 12.2 | 0.00 | 0.00 | 0.00 | 44 | 1009.2 |
| 20260505011355 | 60 | 151 | 3.5 | 12.2 | 0.00 | 0.00 | 0.00 | 45 | 1009.0 |
| 20260505010839 | 60 | 146 | 7.8 | 13.9 | 0.00 | 0.00 | 0.00 | 44 | 1009.0 |
| 20260505010330 | 61 | 171 | 7.0 | 13.9 | 0.00 | 0.00 | 0.00 | 44 | 1009.0 |
| 20260505005830 | 61 | 153 | 9.6 | 13.9 | 0.00 | 0.00 | 0.00 | 44 | 1009.4 |
| 20260505005358 | 61 | 121 | 8.7 | 13.9 | 0.00 | 0.00 | 0.00 | 42 | 1009.4 |
| 20260505004900 | 63 | 175 | 7.0 | 11.3 | 0.00 | 0.00 | 0.00 | 39 | 1009.4 |
| 20260505004349 | 63 | 144 | 6.1 | 8.7 | 0.00 | 0.00 | 0.00 | 38 | 1009.2 |
| 20260505003918 | 64 | 120 | 1.7 | 6.1 | 0.00 | 0.00 | 0.00 | 38 | 1009.2 |
| 20260505003337 | 63 | 154 | 2.6 | 6.1 | 0.00 | 0.00 | 0.00 | 37 | 1009.2 |
| 20260505002908 | 63 | 100 | 1.7 | 3.5 | 0.00 | 0.00 | 0.00 | 36 | 1009.5 |
| 20260505002330 | 63 | 56 | 0.0 | 3.5 | 0.00 | 0.00 | 0.00 | 36 | 1009.5 |
| 20260505001840 | 63 | 328 | 0.9 | 4.3 | 0.00 | 0.00 | 0.00 | 36 | 1009.5 |
| 20260505001342 | 64 | 302 | 2.6 | 4.3 | 0.00 | 0.00 | 0.00 | 35 | 1009.1 |
| 20260505000855 | 64 | 31 | 0.0 | 5.2 | 0.00 | 0.00 | 0.00 | 35 | 1009.1 |
| 20260505000344 | 64 | 326 | 0.9 | 6.1 | 0.00 | 0.00 | 0.00 | 36 | 1009.1 |
| 20260504235830 | 64 | 343 | 1.7 | 6.1 | 0.00 | 0.00 | 0.00 | 35 | 1009.2 |
| 20260504235353 | 64 | 5 | 1.7 | 6.1 | 0.00 | 0.00 | 0.00 | 35 | 1009.2 |
| 20260504234850 | 64 | 320 | 3.5 | 7.8 | 0.00 | 0.00 | 0.00 | 36 | 1009.2 |
| 20260504234352 | 64 | 340 | 5.2 | 8.7 | 0.00 | 0.00 | 0.00 | 36 | 1009.3 |
| 20260504233830 | 64 | 345 | 2.6 | 7.8 | 0.00 | 0.00 | 0.00 | 34 | 1009.3 |
| 20260504233406 | 65 | 325 | 2.6 | 6.1 | 0.00 | 0.00 | 0.00 | 35 | 1009.3 |
| 20260504232855 | 66 | 273 | 0.9 | 6.1 | 0.00 | 0.00 | 0.00 | 33 | 1009.1 |
| 20260504232351 | 67 | 347 | 5.2 | 6.1 | 0.00 | 0.00 | 0.00 | 34 | 1009.1 |
| 20260504231850 | 67 | 353 | 0.9 | 10.4 | 0.00 | 0.00 | 0.00 | 33 | 1009.1 |
| 20260504231349 | 66 | 48 | 4.3 | 10.4 | 0.00 | 0.00 | 0.00 | 34 | 1008.8 |
| 20260504230849 | 66 | 97 | 6.1 | 11.3 | 0.00 | 0.00 | 0.00 | 35 | 1008.8 |
| 20260504230356 | 66 | 86 | 6.1 | 11.3 | 0.00 | 0.00 | 0.00 | 35 | 1008.8 |
| 20260504225903 | 65 | 47 | 4.3 | 13.0 | 0.00 | 0.00 | 0.00 | 35 | 1009.5 |
| 20260504225351 | 65 | 124 | 7.0 | 15.6 | 0.00 | 0.00 | 0.00 | 35 | 1009.5 |
| 20260504224847 | 65 | 130 | 7.0 | 15.6 | 0.00 | 0.00 | 0.00 | 36 | 1009.5 |
| 20260504224349 | 64 | 61 | 7.8 | 15.6 | 0.00 | 0.00 | 0.00 | 35 | 1009.2 |
| 20260504223831 | 64 | 105 | 9.6 | 14.8 | 0.00 | 0.00 | 0.00 | 37 | 1009.2 |
| 20260504223339 | 63 | 82 | 7.0 | 14.8 | 0.00 | 0.00 | 0.00 | 35 | 1009.2 |
| 20260504222831 | 64 | 59 | 8.7 | 13.9 | 0.00 | 0.00 | 0.00 | 36 | 1009.6 |
| 20260504222338 | 64 | 19 | 0.9 | 12.2 | 0.00 | 0.00 | 0.00 | 35 | 1009.6 |
| 20260504221851 | 64 | 5 | 3.5 | 12.2 | 0.00 | 0.00 | 0.00 | 36 | 1009.6 |
| 20260504221352 | 64 | 356 | 7.0 | 12.2 | 0.00 | 0.00 | 0.00 | 36 | 1009.7 |
| 20260504220830 | 65 | 358 | 5.2 | 12.2 | 0.00 | 0.00 | 0.00 | 37 | 1009.7 |
| 20260504220338 | 66 | 358 | 7.0 | 10.4 | 0.00 | 0.00 | 0.00 | 35 | 1009.7 |
| 20260504215853 | 67 | 285 | 5.2 | 10.4 | 0.00 | 0.00 | 0.00 | 36 | 1009.8 |
| 20260504215335 | 67 | 300 | 3.5 | 7.8 | 0.00 | 0.00 | 0.00 | 35 | 1009.8 |
| 20260504214846 | 68 | 356 | 3.5 | 7.0 | 0.00 | 0.00 | 0.00 | 35 | 1009.8 |
| 20260504214356 | 67 | 275 | 2.6 | 7.8 | 0.00 | 0.00 | 0.00 | 34 | 1010.1 |
| 20260504213851 | 66 | 242 | 0.9 | 10.4 | 0.00 | 0.00 | 0.00 | 33 | 1010.1 |
| 20260504213351 | 67 | 210 | 5.2 | 10.4 | 0.00 | 0.00 | 0.00 | 33 | 1010.1 |
| 20260504212850 | 66 | 304 | 3.5 | 13.0 | 0.00 | 0.00 | 0.00 | 34 | 1009.9 |
| 20260504212331 | 68 | 277 | 4.3 | 13.0 | 0.00 | 0.00 | 0.00 | 31 | 1009.9 |
| 20260504211837 | 68 | 180 | 7.8 | 12.2 | 0.00 | 0.00 | 0.00 | 33 | 1009.9 |
| 20260504211348 | 70 | 140 | 7.0 | 12.2 | 0.00 | 0.00 | 0.00 | 29 | 1009.8 |
| 20260504210829 | 71 | 179 | 7.0 | 12.2 | 0.00 | 0.00 | 0.00 | 29 | 1009.8 |
| 20260504210356 | 72 | 160 | 8.7 | 14.8 | 0.00 | 0.00 | 0.00 | 31 | 1009.8 |
| 20260504205835 | 71 | 125 | 10.4 | 14.8 | 0.00 | 0.00 | 0.00 | 29 | 1009.9 |
| 20260504205401 | 71 | 185 | 6.1 | 13.9 | 0.00 | 0.00 | 0.00 | 30 | 1009.9 |
| 20260504204848 | 71 | 197 | 7.8 | 11.3 | 0.00 | 0.00 | 0.00 | 30 | 1009.9 |
| 20260504204330 | 72 | 163 | 7.0 | 11.3 | 0.00 | 0.00 | 0.00 | 31 | 1009.7 |
| 20260504203838 | 69 | 228 | 2.6 | 11.3 | 0.00 | 0.00 | 0.00 | 30 | 1009.7 |
| 20260504203345 | 69 | 234 | 7.8 | 12.2 | 0.00 | 0.00 | 0.00 | 29 | 1009.7 |
| 20260504202843 | 70 | 211 | 3.5 | 12.2 | 0.00 | 0.00 | 0.00 | 30 | 1009.9 |
| 20260504202344 | 69 | 187 | 7.0 | 10.4 | 0.00 | 0.00 | 0.00 | 31 | 1009.9 |
| 20260504201843 | 70 | 157 | 7.0 | 12.2 | 0.00 | 0.00 | 0.00 | 29 | 1009.9 |
| 20260504201353 | 70 | 162 | 5.2 | 12.2 | 0.00 | 0.00 | 0.00 | 31 | 1010.0 |
| 20260504200841 | 69 | 186 | 3.5 | 11.3 | 0.00 | 0.00 | 0.00 | 29 | 1010.0 |
| 20260504200356 | 69 | 274 | 6.1 | 13.9 | 0.00 | 0.00 | 0.00 | 29 | 1010.0 |
| 20260504195852 | 70 | 200 | 4.3 | 13.9 | 0.00 | 0.00 | 0.00 | 32 | 1010.7 |
| 20260504195352 | 70 | 221 | 5.2 | 10.4 | 0.00 | 0.00 | 0.00 | 32 | 1010.7 |
| 20260504194853 | 72 | 165 | 6.1 | 11.3 | 0.00 | 0.00 | 0.00 | 28 | 1010.7 |
| 20260504194331 | 70 | 212 | 6.1 | 11.3 | 0.00 | 0.00 | 0.00 | 34 | 1010.3 |
| 20260504193842 | 71 | 189 | 5.2 | 10.4 | 0.00 | 0.00 | 0.00 | 33 | 1010.3 |
| 20260504193350 | 70 | 165 | 3.5 | 10.4 | 0.00 | 0.00 | 0.00 | 30 | 1010.3 |
| 20260504192858 | 67 | 177 | 0.9 | 13.0 | 0.00 | 0.00 | 0.00 | 35 | 1010.9 |
| 20260504192340 | 70 | 181 | 8.7 | 13.0 | 0.00 | 0.00 | 0.00 | 31 | 1010.9 |
| 20260504191841 | 68 | 221 | 0.9 | 9.6 | 0.00 | 0.00 | 0.00 | 31 | 1010.9 |
| 20260504191351 | 69 | 133 | 6.1 | 13.0 | 0.00 | 0.00 | 0.00 | 33 | 1010.6 |
| 20260504190854 | 70 | 140 | 6.1 | 13.0 | 0.00 | 0.00 | 0.00 | 32 | 1010.6 |
| 20260504190334 | 69 | 145 | 5.2 | 12.2 | 0.00 | 0.00 | 0.00 | 33 | 1010.6 |
| 20260504185842 | 68 | 200 | 7.0 | 9.6 | 0.00 | 0.00 | 0.00 | 32 | 1011.2 |
| 20260504185350 | 67 | 140 | 3.5 | 9.6 | 0.00 | 0.00 | 0.00 | 34 | 1011.2 |
| 20260504184847 | 67 | 136 | 0.9 | 10.4 | 0.00 | 0.00 | 0.00 | 35 | 1011.2 |
| 20260504184348 | 67 | 163 | 7.8 | 10.4 | 0.00 | 0.00 | 0.00 | 35 | 1011.0 |
| 20260504183914 | 67 | 138 | 3.5 | 11.3 | 0.00 | 0.00 | 0.00 | 35 | 1011.0 |
| 20260504183336 | 67 | 190 | 7.0 | 11.3 | 0.00 | 0.00 | 0.00 | 33 | 1011.0 |
| 20260504182845 | 67 | 218 | 5.2 | 9.6 | 0.00 | 0.00 | 0.00 | 35 | 1011.2 |
| 20260504182352 | 67 | 167 | 0.9 | 13.0 | 0.00 | 0.00 | 0.00 | 33 | 1011.2 |
| 20260504181828 | 68 | 133 | 4.3 | 13.0 | 0.00 | 0.00 | 0.00 | 34 | 1011.2 |
| 20260504181353 | 66 | 179 | 3.5 | 13.0 | 0.00 | 0.00 | 0.00 | 32 | 1011.2 |
| 20260504180850 | 66 | 104 | 6.1 | 13.0 | 0.00 | 0.00 | 0.00 | 36 | 1011.2 |
| 20260504180346 | 67 | 171 | 5.2 | 11.3 | 0.00 | 0.00 | 0.00 | 34 | 1011.2 |
| 20260504175847 | 67 | 121 | 7.0 | 11.3 | 0.00 | 0.00 | 0.00 | 35 | 1011.7 |
| 20260504175352 | 66 | 110 | 4.3 | 10.4 | 0.00 | 0.00 | 0.00 | 35 | 1011.7 |
| 20260504174857 | 66 | 182 | 5.2 | 10.4 | 0.00 | 0.00 | 0.00 | 34 | 1011.7 |
| 20260504174351 | 66 | 152 | 5.2 | 11.3 | 0.00 | 0.00 | 0.00 | 36 | 1011.7 |
| 20260504173827 | 67 | 160 | 6.1 | 11.3 | 0.00 | 0.00 | 0.00 | 36 | 1011.7 |
| 20260504173356 | 65 | 138 | 7.8 | 10.4 | 0.00 | 0.00 | 0.00 | 36 | 1011.7 |
| 20260504172833 | 66 | 148 | 7.8 | 8.7 | 0.00 | 0.00 | 0.00 | 36 | 1011.7 |
| 20260504172338 | 66 | 131 | 4.3 | 8.7 | 0.00 | 0.00 | 0.00 | 36 | 1011.7 |
| 20260504171851 | 65 | 138 | 3.5 | 8.7 | 0.00 | 0.00 | 0.00 | 37 | 1011.7 |
| 20260504171331 | 64 | 171 | 7.0 | 10.4 | 0.00 | 0.00 | 0.00 | 37 | 1012.0 |
| 20260504170838 | 64 | 124 | 6.1 | 11.3 | 0.00 | 0.00 | 0.00 | 36 | 1012.0 |
| 20260504170343 | 65 | 162 | 4.3 | 12.2 | 0.00 | 0.00 | 0.00 | 36 | 1012.0 |
| 20260504160349 | 62 | 164 | 0.9 | 5.2 | 0.00 | 0.00 | 0.00 | 43 | 1011.8 |
| 20260504150841 | 58 | 131 | 1.7 | 4.3 | 0.00 | 0.00 | 0.00 | 48 | 1012.7 |
| 20260504150352 | 57 | 141 | 0.0 | 4.3 | 0.00 | 0.00 | 0.00 | 50 | 1012.7 |
| 20260504140857 | 56 | 159 | 1.7 | 4.3 | 0.00 | 0.00 | 0.00 | 51 | 1012.3 |
| 20260504140331 | 55 | 141 | 1.7 | 4.3 | 0.00 | 0.00 | 0.00 | 50 | 1012.3 |
| 20260504130333 | 55 | 144 | 1.7 | 6.1 | 0.00 | 0.00 | 0.00 | 47 | 1012.7 |
| 20260504110350 | 54 | 164 | 3.5 | 9.6 | 0.00 | 0.00 | 0.00 | 51 | 1012.8 |
| 20260504100347 | 55 | 133 | 1.7 | 6.1 | 0.00 | 0.00 | 0.00 | 41 | 1012.5 |